Tracking 28091 objects as of 29-Sep-2023
HD Live streaming from Space Station
objects crossing your sky now

LEMUR 1

Track LEMUR 1 now!
10-day predictions
LEMUR 1 is classified as:


NORAD ID: 40044
Int'l Code: 2014-033AL
Perigee: 605.8 km
Apogee: 686.8 km
Inclination: 97.7 °
Period: 97.5 minutes
Semi major axis: 7017 km
RCS: Unknown
Launch date: June 19, 2014
Source: United States (US)
Launch site: Orenburg, Russia (OREN)
Your satellite tracking list
Your tracking list is empty




NASA's NSSDC Master Catalog

Two Line Element Set (TLE):
1 40044U 14033AL  23271.48001656  .00003212  00000-0  45159-3 0  9993
2 40044  97.6761  80.6847 0057670  81.5338 279.2404 14.76883739498506
Source of the keplerian elements: AFSPC